Tracking 19709 objects as of 18-Jun-2019
HD Live streaming from Space Station
objects crossing your sky now

MICROSAT-R DEB

Track MICROSAT-R DEB now!
10-day predictions


NORAD ID: 44146
Int'l Code: 2019-006AH
Perigee: 205.6 km
Apogee: 257.6 km
Inclination: 96.6 °
Period: 89.0 minutes
Semi major axis: 6602 km
RCS: Unknown
Launch date: January 24, 2019
Source: India (IND)
Launch site: SRIHARIKOTA (SRI)

Note: This is SATELLITE DEBRIS
aabbcc
Your satellite tracking list
Your tracking list is empty




NASA's NSSDC Master Catalog

Two Line Element Set (TLE):
1 44146U 19006AH  19167.82020658  .00313900  19699-5  16453-3 0  9997
2 44146  96.5946  80.2321 0039380 329.3804  30.5187 16.18194594 12294
Source of the keplerian elements: AFSPC